This demonstration page uses our WeatherBlox Daily Observations layout. Learn more.

Left ArrowRight Arrow

34.02893, -84.19858

Hourly Observations for January 1, 2018

Temp ( °F °C ) Dew Point ( °F °C ) Humidity (%) Winds ( mph kmh ) Pressure ( in mb ) Visibility ( mi km ) Precip ( " mm )
12:53 am 00:53 Cloudy 25 -3.9 10 -12.2 53 53 NW 15 24 30.35 1028 10 16 0.00 0.00
1:53 am 01:53 Cloudy 24 -4.4 8 -13.3 50 50 NNW 9 15 30.38 1029 10 16 0.00 0.00
2:14 am 02:14 Cloudy 24 -4.4 8 -13.3 50 50 NW 10 17 30.42 1030 10 16 0.00 0.00
2:53 am 02:53 Cloudy 23 -5 6 -14.4 48 48 NW 12 19 30.38 1029 10 16 0.00 0.00
3:24 am 03:24 Cloudy 23 -5 6 -14.4 48 48 WNW 8 13 30.42 1030 10 16 0.00 0.00
3:44 am 03:44 Cloudy 22 -5.6 6 -14.4 50 50 NW 9 15 30.42 1030 10 16 0.00 0.00
3:53 am 03:53 Cloudy 22 -5.6 6 -14.4 50 50 WNW 10 17 30.40 1029 10 16 0.00 0.00
4:53 am 04:53 Cloudy 20 -6.7 5 -15 52 52 NW 14 22 30.41 1030 10 16 0.00 0.00
5:48 am 05:48 Cloudy 19 -7 5 -15 53 53 NW 10 17 30.45 1031 10 16 0.00 0.00
5:53 am 05:53 Cloudy 19 -7.2 5 -15 54 54 NW 9 15 30.44 1031 10 16 0.00 0.00
6:53 am 06:53 Cloudy 19 -7.2 5 -15 54 54 NW 13 20 30.46 1031 10 16 0.00 0.00
7:53 am 07:53 Cloudy 19 -7.2 5 -15 54 54 NW 14 22 30.49 1032 10 16 0.00 0.00
8:53 am 08:53 Cloudy 19 -7.2 5 -15 54 54 NW 10 17 30.52 1033 10 16 0.00 0.00
9:53 am 09:53 Cloudy 19 -7.2 5 -15 54 54 NW 8 13 30.55 1034 10 16 0.00 0.00
10:53 am 10:53 Cloudy 20 -6.7 5 -15 52 52 NW 9 15 30.56 1035 10 16 0.00 0.00
11:53 am 11:53 Cloudy 21 -6.1 6 -14.4 52 52 NNW 8 13 30.55 1035 10 16 0.00 0.00
12:53 pm 12:53 Cloudy 24 -4.4 8 -13.3 50 50 NNW 12 19 30.53 1034 10 16 0.00 0.00
1:00 pm 13:00 Cloudy 24 -4.4 7 -13.9 48 48 NW 12 19 30.53 1034 10 16 0.00 0.00
1:53 pm 13:53 Cloudy 24 -4.4 8 -13.3 50 50 NW 12 19 30.52 1034 10 16 0.00 0.00
2:53 pm 14:53 Mostly Cloudy 27 -2.8 9 -12.8 46 46 NW 13 20 30.52 1033 10 16 0.00 0.00
3:53 pm 15:53 Sunny 27 -2.8 9 -12.8 46 46 NW 8 13 30.52 1034 10 16 0.00 0.00
4:53 pm 16:53 Sunny 27 -2.8 8 -13.3 45 45 NW 10 17 30.53 1034 10 16 0.00 0.00
5:53 pm 17:53 Clear 24 -4.4 6 -14.4 46 46 NW 12 19 30.55 1035 10 16 0.00 0.00
6:53 pm 18:53 Clear 22 -5.6 6 -14.4 50 50 NW 7 11 30.57 1035 10 16 0.00 0.00
7:53 pm 19:53 Clear 20 -6.7 6 -14.4 55 55 NW 7 11 30.58 1036 10 16 0.00 0.00
8:53 pm 20:53 Clear 19 -7.2 5 -15 54 54 NNW 12 19 30.59 1036 10 16 0.00 0.00
9:53 pm 21:53 Clear 18 -7.8 5 -15 57 57 NNW 12 19 30.59 1036 10 16 0.00 0.00
10:53 pm 22:53 Clear 17 -8.3 4 -15.6 56 56 NNW 8 13 30.59 1036 10 16 0.00 0.00
11:53 pm 23:53 Clear 16 -8.9 4 -15.6 59 59 NNW 5 7 30.61 1037 10 16 0.00 0.00

Powered by AerisWeather